Regional Weather Roundup
Issued by NWS Upton, NY

Current Version | Previous Version | Graphics & Text | Print | Product List | Glossary Off
Versions: 1 2 3 4 5 6 7 8 9 10 11 12 13 14 15 16 17 18 19 20 21 22 23 24 25 26 27 28 29 30 31 32 33 34 35 36 37 38 39 40 41 42 43 44 45 46 47 48 49 50

000
ASUS41 KOKX 260507
RWROKX

REGIONAL WEATHER ROUNDUP
NATIONAL WEATHER SERVICE NEW YORK NY
100 AM EDT THU MAR 26 2015

NOTE: "FAIR" INDICATES FEW OR NO CLOUDS BELOW 12,000 FEET WITH NO
SIGNIFICANT WEATHER AND/OR OBSTRUCTIONS TO VISIBILITY.

NYZ071-072-176-178-NJZ106-104-260600-
NEW YORK CITY METRO AREA


CITY           SKY/WX    TMP DP  RH WIND       PRES   REMARKS
CENTRAL PARK   CLOUDY    42  38  85 CALM      30.15F FOG
LAGUARDIA APRT CLOUDY    38  36  92 E6        30.13F FOG     WCI  33
KENNEDY INTL   CLOUDY    43  40  89 CALM      30.14F
NEWARK/LIBERTY CLOUDY    41  39  93 CALM      30.14F
BRNX BOT. GARD   N/A     39  39 100 CALM      30.16F
TETERBORO      CLOUDY    41  38  89 CALM      30.13F FOG
$$

NYZ177-179-078>081-260600-
LONG ISLAND NEW YORK

CITY           SKY/WX    TMP DP  RH WIND       PRES   REMARKS
FARMINGDALE    CLOUDY    44  43  96 S5        30.13F
ISLIP          CLOUDY    44  42  93 S7        30.11F
SHIRLEY        CLOUDY    45  43  93 S7        30.13F
WESTHAMPTON    LGT RAIN  44  42  93 S5        30.14F
MONTAUK POINT    N/A     43  39  86 S7        30.14F
$$

NYZ052-065-067-260600-
HUDSON VALLEY

CITY           SKY/WX    TMP DP  RH WIND       PRES   REMARKS
WHITE PLAINS   FOG       36  35  96 NW5       30.11F VSB 3/4 WCI  32
NEWBURGH       FOG       36  36 100 CALM      30.13F VSB 1
MONTGOMERY     CLOUDY    35  34  96 CALM      30.11F FOG
POUGHKEEPSIE   FOG       37  35  92 CALM      30.13F VSB 1
ALBANY         CLOUDY    38  33  82 S15G28    30.05F WCI  29
$$

NJZ001-105-106-008-010-013-015-019>022-104-260600-
NEW JERSEY

CITY           SKY/WX    TMP DP  RH WIND       PRES   REMARKS
NEWARK/LIBERTY CLOUDY    41  39  93 CALM      30.14F
TETERBORO      CLOUDY    41  38  89 CALM      30.13F FOG
CALDWELL       CLOUDY    38  36  92 CALM      30.14F FOG
MORRISTOWN     CLOUDY    41  37  87 CALM      30.13F FOG
SOMERVILLE     CLOUDY    40  37  89 CALM      30.12F FOG
SUSSEX         CLOUDY    36  35  96 CALM      30.12F FOG
ANDOVER          N/A     36  36 100 CALM      30.12F
TRENTON        CLOUDY    40  37  89 N3        30.13F FOG
MILLVILLE      CLOUDY    46  44  93 CALM      30.13F
ATLANTIC CITY  CLOUDY    45  44  97 CALM      30.13F
WRIGHTSTOWN    CLOUDY    41  41  99 N3        30.11F
TOMS RIVER     CLOUDY    43  41  93 CALM      30.13F
BELMAR         CLOUDY    43  37  81 CALM      30.13F
$$

PAZ047>061-062-071-260600-
EASTERN PENNSYLVANIA

CITY           SKY/WX    TMP DP  RH WIND       PRES   REMARKS
PHILADELPHIA   CLOUDY    43  40  89 CALM      30.14F
ALLENTOWN      CLOUDY    38  35  89 CALM      30.13F
SCRANTON       FAIR      40  34  79 SW3       30.06F
$$

CTZ002-004>006-009-010-012-RIZ004-006-007-MAZ004-011-015-260600-
SOUTHERN NEW ENGLAND
 IN CT

CITY           SKY/WX    TMP DP  RH WIND       PRES   REMARKS
BRADLEY INTL   DRIZZLE   37  35  92 S7        30.12F FOG     WCI  32
HARTFORD       CLOUDY    37  36  96 CALM      30.14F FOG
DANBURY        FOG       35  33  92 CALM      30.14F VSB 1
WTRBRY/OXFORD  CLOUDY    36  30  80 NW5       30.14F VSB 3/4 WCI  32
BRIDGEPORT     LGT RAIN  38  36  92 N5        30.14F FOG     WCI  34
MERIDEN        LGT RAIN  36  34  92 CALM      30.14F VSB 3/4
NEW HAVEN      CLOUDY    38  36  92 CALM      30.13F FOG
CHESTER        FOG       37  37 100 S5        30.14F VSB 1   WCI  34
GROTON         LGT RAIN  41  38  89 E3        30.14F FOG
WILLIMANTIC    MIX PCPN  36  35  96 CALM      30.15F VSB 1/2

 IN RI

CITY           SKY/WX    TMP DP  RH WIND       PRES   REMARKS
PROVIDENCE     CLOUDY    41  39  93 S8        30.14F
BLOCK ISLAND   CLOUDY    43  39  87 S15       30.13F
WESTERLY       LGT RAIN  41  40  96 CALM      30.16F

 IN MA

CITY           SKY/WX    TMP DP  RH WIND       PRES   REMARKS
BOSTON         CLOUDY    38  35  89 SW9       30.14F WCI  31
WORCESTER      LGT RAIN  36  35  96 SW13      30.09F FOG     WCI  27
WESTFIELD      CLOUDY    35  34  96 S5        30.12F FOG     WCI  31
PROVINCETOWN   CLOUDY    39  34  81 S13       30.16F WCI  32
NANTUCKET      CLOUDY    40  35  83 S15       30.19F WCI  32
$$

ANZ330-335-338-340-345-350-353-355-260600-
COASTAL MARINE OBSERVATIONS


STATION/POSITION TIME  SKY/WX   TEMP    WIND        PRES    VSBY  WAVE
                                AIR SEA DIR/SP/G                  HT/PER
                 (UTC)          (F)     (DEG/KT/KT) (MB)    (MI)  (FT/S)
NY HARB ENTRANCE 0450            39 38  340/  2/  4 1020.0          2/ 4
4S FIRE IS       0403               37                N/A           2/ 3
20S FIRE ISLAND  0350               38              1021.4          2/ 4
23SW MTP         0450                                 N/A           2/ 4
HUDSON CANYON    NOT AVBL
EXECUTION ROCKS  NOT AVBL
WESTERN LI SOUND NOT AVBL
CENTRAL LI SOUND NOT AVBL
EASTERN LI SOUND NOT AVBL
ROBBINS REEF     0400            39        CALM     1019.8
$$


>>>>>>>>>>>>>>>>>>>>>>>>>>>> KEY <<<<<<<<<<<<<<<<<<<<<<<<<<<
>                                                          <
>     SKY/WX - SKY CONDITION/PRESENT WEATHER               <
>     TMP    - TEMPERATURE IN FAHRENHEIT                   <
>     DP     - DEWPOINT IN FAHRENHEIT                      <
>     RH     - RELATIVE HUMIDITY IN PERCENT                <
>     WIND   - DIRECTION AND SPEED IN MPH                  <
>     PRES   - MEAN SEA LEVEL PRESSURE IN INCHES OF HG     <
>     WCI    - WIND CHILL INDEX                            <
>     VSB    - VISIBILITY IN MILES                         <
>     HX     - HEAT INDEX                                  <
>     TC     - TEMPERATURE IN CELSIUS                      <
>     VRB    - VARIABLE WIND DIRECTION                     <
>                                                          <
>>>>>>>>>>>>>>>>>>>>>>>>>>>> KEY <<<<<<<<<<<<<<<<<<<<<<<<<<<





USA.gov is the U.S. government's official web portal to all federal, state and local government web resources and services.